This is the latest recevied weather packets stored in our database for station/object XE2OR-10. If no packets are shown the sender has not sent any weather packets the latest 10 day(s).
| Time | Temp. | Humidity | Pressure | Rain* | Wind** | Luminosity | Snow |
|---|---|---|---|---|---|---|---|
| 1777060129 | 31.11° C | 71% | 997.8 hPa | 0 mm | - | 780 W/m² | - |
| 1777059833 | 31.11° C | 71% | 997.9 hPa | 0 mm | - | 809 W/m² | - |
| 1777059529 | 30.56° C | 73% | 997.9 hPa | 0 mm | - | 792 W/m² | - |
| 1777059229 | 31.11° C | 75% | 997.9 hPa | 0 mm | - | 760 W/m² | - |
| 1777058929 | 30.56° C | 74% | 998 hPa | 0 mm | - | 690 W/m² | - |
| 1777058633 | 31.11° C | 74% | 998.3 hPa | 0 mm | - | 681 W/m² | - |
| 1777058329 | 30.56° C | 74% | 998.2 hPa | 0 mm | - | 727 W/m² | - |
| 1777058033 | 31.67° C | 73% | 998.3 hPa | 0 mm | - | 276 W/m² | - |
| 1777057729 | 30.56° C | 75% | 998.5 hPa | 0 mm | - | 783 W/m² | - |
| 1777057430 | 30° C | 76% | 998.5 hPa | 0 mm | - | 770 W/m² | - |
| 1777057129 | 29.44° C | 76% | 998.6 hPa | 0 mm | - | 834 W/m² | - |
| 1777056833 | 30.56° C | 76% | 998.8 hPa | 0 mm | - | 653 W/m² | - |
| 1777056529 | 29.44° C | 78% | 998.8 hPa | 0 mm | - | 946 W/m² | - |
| 1777056232 | 29.44° C | 78% | 999 hPa | 0 mm | - | 311 W/m² | - |
| 1777055929 | 29.44° C | 78% | 998.7 hPa | 0 mm | - | 279 W/m² | - |
| 1777055629 | 29.44° C | 78% | 998.9 hPa | 0 mm | - | 317 W/m² | - |
| 1777055329 | 29.44° C | 78% | 998.8 hPa | 0 mm | - | 913 W/m² | - |
| 1777055032 | 29.44° C | 78% | 998.8 hPa | 0 mm | - | 948 W/m² | - |
| 1777054729 | 28.89° C | 81% | 999 hPa | 0 mm | - | 671 W/m² | - |
| 1777054432 | 28.89° C | 80% | 999 hPa | 0 mm | - | 795 W/m² | - |
| 1777054129 | 28.33° C | 82% | 999 hPa | 0 mm | - | 426 W/m² | - |
| 1777053829 | 28.33° C | 82% | 999 hPa | 0 mm | - | 466 W/m² | - |
| 1777053529 | 28.89° C | 82% | 999.2 hPa | 0 mm | - | 416 W/m² | - |
| 1777053232 | 28.33° C | 82% | 999.1 hPa | 0 mm | - | 463 W/m² | - |
| 1777052929 | 28.33° C | 83% | 999.2 hPa | 0 mm | - | 478 W/m² | - |
* Rain latest hour (hover to see other rain measurements)
** Current wind speed in m/s (hover to see current wind gust speed)